This demonstration page uses our WeatherBlox Daily Observations layout. Learn more.

41.55636, -103.73856

Hourly Observations for December 19, 2019

Temp ( °F °C ) Dew Point ( °F °C ) Humidity (%) Winds ( mph kmh ) Pressure ( in mb ) Visibility ( mi km ) Precip ( " mm )
12:58 am 00:58 Clear 37 3 12 -11.2 35 35 SSW 6 9 30.18 1022 10 16.0934 0 0
1:58 am 01:58 Clear 33 0.8 12 -10.9 42 42 SW 7 11 30.18 1022 10 16.0934 0 0
2:58 am 02:58 Clear 33 0.5 14 -10.1 45 45 SW 8 13 30.16 1021 10 16.0934 0 0
3:58 am 03:58 Clear 33 0.5 13 -10.5 44 44 SSW 8 13 30.11 1020 10 16.0934 0 0
4:58 am 04:58 Clear 30 -0.9 14 -10 51 51 Calm 30.1 1019 10 16.0934 0 0
5:58 am 05:58 Clear 28 -2.2 14 -10 56 56 NNE 5 7 30.09 1019 10 16.0934 0 0
6:58 am 06:58 Clear 33 0.5 11 -11.7 40 40 Calm 30.03 1017 10 16.0934 0 0
7:58 am 07:58 Mostly Cloudy 32 0.2 11 -11.7 41 41 ENE 7 11 29.98 1015 10 16.0934 0 0
8:58 am 08:58 Mostly Cloudy 33 0.6 10 -12 39 39 WSW 12 19 29.98 1015 10 16.0934 0 0
9:58 am 09:58 Mostly Cloudy 31 -0.3 10 -12.2 41 41 Calm 29.96 1015 10 16.0934 0 0
10:58 am 10:58 Mostly Cloudy 28 -2.1 12 -11.3 50 50 S 5 7 29.98 1015 10 16.0934 0 0
11:58 am 11:58 Clear 30 -1.1 11 -11.6 45 45 SSW 7 11 29.96 1014 10 16.0934 0 0
12:58 pm 12:58 Partly Cloudy 24 -4.6 12 -10.9 62 62 NW 9 15 30 1016 10 16.0934 0 0
1:58 pm 13:58 Mostly Cloudy 25 -3.8 13 -10.3 61 61 WSW 5 7 30.04 1017 10 16.0934 0 0
2:58 pm 14:58 Mostly Cloudy 27 -2.8 13 -10.6 55 55 WSW 5 7 30.04 1017 10 16.0934 0 0
3:58 pm 15:58 Sunny 30 -1.1 14 -9.9 52 52 SSW 6 9 30.04 1017 10 16.0934 0 0
4:58 pm 16:58 Mostly Sunny 35 1.7 18 -7.8 50 50 WNW 6 9 30.03 1017 10 16.0934 0 0
5:58 pm 17:58 Sunny 37 3 19 -7.2 47 47 W 6 9 30.03 1017 10 16.0934 0 0
6:58 pm 18:58 Sunny 41 4.8 15 -9.3 36 36 WNW 10 17 29.96 1015 10 16.0934 0 0
7:58 pm 19:58 Sunny 40 4.6 17 -8.2 39 39 NW 15 24 29.94 1014 10 16.0934 0 0
8:58 pm 20:58 Mostly Sunny 40 4.4 18 -8 40 40 NW 17 28 29.97 1015 10 16.0934 0 0
9:58 pm 21:58 Sunny 40 4.3 20 -6.8 45 45 NNW 14 22 29.99 1016 10 16.0934 0 0
10:58 pm 22:58 Mostly Sunny 37 3 19 -7.4 47 47 WNW 15 24 30.02 1017 10 16.0934 0 0
11:58 pm 23:58 Partly Cloudy 34 0.9 19 -7.3 55 55 NNW 12 19 30.06 1018 10 16.0934 0 0

Powered by AerisWeather